This is the latest recevied weather packets stored in our database for station/object KC3ULW-13. If no packets are shown the sender has not sent any weather packets the latest 10 day(s).
| Time | Temp. | Humidity | Pressure | Rain* | Wind** | Luminosity | Snow |
|---|---|---|---|---|---|---|---|
| 1777647782 | 13.33° C | 56% | 1014.7 hPa | 0 mm | - | 506 W/m² | - |
| 1777647478 | 12.78° C | 57% | 1014.8 hPa | 0 mm | - | 591 W/m² | - |
| 1777647175 | 12.78° C | 60% | 1014.9 hPa | 0 mm | - | 368 W/m² | - |
| 1777646871 | 12.22° C | 59% | 1015.1 hPa | 0 mm | - | 340 W/m² | - |
| 1777646567 | 12.22° C | 60% | 1014.9 hPa | 0 mm | - | 329 W/m² | - |
| 1777646264 | 11.67° C | 61% | 1014.9 hPa | 0 mm | - | 261 W/m² | - |
| 1777645961 | 11.67° C | 61% | 1015.2 hPa | 0 mm | - | 216 W/m² | - |
| 1777645658 | 11.11° C | 63% | 1015.1 hPa | 0 mm | - | 161 W/m² | - |
| 1777645354 | 11.11° C | 62% | 1015.1 hPa | 0 mm | - | 191 W/m² | - |
| 1777645049 | 11.11° C | 65% | 1015.2 hPa | 0 mm | - | 215 W/m² | - |
| 1777644747 | 11.11° C | 66% | 1015.1 hPa | 0 mm | - | 252 W/m² | - |
| 1777644444 | 11.11° C | 68% | 1015.1 hPa | 0 mm | - | 200 W/m² | - |
| 1777644141 | 10.56° C | 69% | 1015.2 hPa | 0 mm | - | 212 W/m² | - |
| 1777643836 | 10.56° C | 70% | 1015 hPa | 0 mm | - | 204 W/m² | - |
| 1777643534 | 10.56° C | 72% | 1015.1 hPa | 0 mm | - | 254 W/m² | - |
| 1777643231 | 10° C | 72% | 1015.2 hPa | 0 mm | - | 219 W/m² | - |
| 1777642928 | 9.44° C | 74% | 1015.2 hPa | 0 mm | - | 252 W/m² | - |
| 1777642624 | 9.44° C | 77% | 1015.1 hPa | 0 mm | - | 213 W/m² | - |
| 1777642321 | 9.44° C | 79% | 1015 hPa | 0 mm | - | 180 W/m² | - |
| 1777642018 | 8.89° C | 80% | 1015 hPa | 0 mm | - | 203 W/m² | - |
| 1777641713 | 8.89° C | 81% | 1015.1 hPa | 0 mm | - | 234 W/m² | - |
| 1777641409 | 7.78° C | 83% | 1015.4 hPa | 0 mm | - | 216 W/m² | - |
| 1777641104 | 7.78° C | 86% | 1015.8 hPa | 0 mm | - | 170 W/m² | - |
| 1777640800 | 7.22° C | 87% | 1015.8 hPa | 0 mm | - | 130 W/m² | - |
| 1777640498 | 7.22° C | 88% | 1015.8 hPa | 0 mm | - | 118 W/m² | - |
* Rain latest hour (hover to see other rain measurements)
** Current wind speed in m/s (hover to see current wind gust speed)